If you wish to contribute or participate in the discussions about articles you are invited to join SKYbrary as a registered user

 Actions

Sørkjosen Airport

From SKYbrary Wiki

ENSR
Airport
ICAO: ENSR – IATA: SOJ
Summary
Name Sørkjosen Airport
Region Europe
Territory Norway NO.gif
Location Sørkjosen, Nordreisa, Troms
Serving Sørkjosen
Coordinates 69° 47' 11.27" N, 20° 57' 35.36" E
Runways
Designator Length Width Surface ROPS
15/33 919 m3,015.092 ft
30 m98.425 ft
ASP /


METAR
Observation ENSR 200520Z VRB04KT 9999 SCT022 12/10 Q1001 WIND 1119FT 31010KT
Station Sorkjosen
Date/Time 20 August 2019 05:20:00
Wind direction °
Wind speed 04 kts
Lowest cloud amount scattered clouds
Temperature 12°C
Dew point 10°C
Humidity 87%
QNH 1001 hPa
Weather condition n/a

CFIT
Tag(s) Altimeter Temperature Error Correction
GND
Tag(s) Aircraft Ground De/Anti Icing
WX
Tag(s) Low Level Turbulence

Sørkjosen Airport

ICAO: ENSR IATA: SOJ

Description

Airport in Sørkjosen in the municipality of Nordreisa, Troms in Northern Norway.

Climatology

Borderline Subpolar Oceanic/Continental subarctic climate (because of winter temperatures) (Köppen climate classification Cfc/Dfc) - uniform precipitation distribution, temperatures are moderated by the proximity of the ocean and warm currents - cool summers and comparatively mild winters.

Heavy snowfalls in winter.

Maps

Terrain

Loading map...

Airport Layout

Loading map...


Accidents & Serious Incidents at or in vicinity of ENSR

None on SKYbrary